Location: Góry Miechowskie
(50.3599°N, 20.1803°E)
Time: 15:42:39
(UTC+00:00)

Courier 1B Rocket - Pass Details

Date: 16 September 2024
Orbit: 920 x 1201 km, 28.3° (Epoch: 11 October)

Event Time Altitude Azimuth Distance (km) Brightness Sun altitude
Rises 15:09:54 0° 220° (SW) 3,711 9.0 15.0°
Reaches altitude 10° 15:15:55 10° 179° (S) 2,853 7.7 14.1°
Maximum altitude 15:16:37 10° 173° (S) 2,852 7.6 14.0°
Drops below altitude 10° 15:17:19 10° 167° (SSE) 2,875 7.5 13.9°
Sets 15:23:38 0° 127° (SE) 3,928 7.8 12.9°
